ERS 6

Satellite information

Favourite Embed

Satellite Type and Status

PAYLOADIN ORBIT

Key statistics

Satellite ERS 6 at a glance.

Uptime

22765

Days in orbit

Revolutions

≈ 8.7

Per day

Orbit

MEO

Medium Earth Orbit

Inclination

87.3

Latest

Satellite identification and parameters

Extended collection of information and parameters for ERS 6.

Object identification

Identified? True

Debris? False

Object name: ERS 6

International designator: 1963-014C

Object number (NORAD): 608

Object ID (CCSDS): 608

Country: UNITED STATES OF AMERICA (US)

Current information (Y/N): Y

RCS size: MEDIUM

Orbital parameters

Period: 166.419 minutes

Inclination: 87.3331 deg

SMA: 10022.189 km

Apoapsis: 3688.381 km

Periapsis: 3599.727 km

RAAN: 220.8042 deg

Eccentricy: 0.00442287

Argument of periapsis: 303.3248 deg

Mean anomaly: 56.3376 deg

Mean motion: 8.65284422 rev/day

Mean motion (dot): 0.0 rev/day2

B* drag term: -0.0012689501 1/REarth

Two-line elements (TLE)

Creation date: Aug. 31, 2025, 2:26 a.m.

Reference frame: TEME

Reference center: EARTH

Epoch: Aug. 30, 2025, 10:28 p.m. UTC

TLE line 0: 0 ERS 6

TLE line 1: 1 00608U 63014C 25242.93680541 .00000000 00000-0 -12690-2 0 9990

TLE line 2: 2 00608 87.3331 220.8042 0044229 303.3248 56.3376 8.65284422968399

Live tracking on map

Real-time ground track for satellite ERS 6.

In-orbit conjunctions

There are no conjunctions computed for ERS 6, at the moment. Check back to stay up to date, as we update our databases every day.

Go to all conjunctions

Associated space launch

MIDAS Series 3 (Military Defense Alarm System) early warning satellite.

ERS 6 was lifted into orbit during the mission ‘Atlas Agena B | Midas 7’, on board a Atlas Agena B space rocket.

The launch took place on May 9, 1963, 8:06 p.m. from Space Launch Complex 3E.

For more information about the launch, click the button.

Launch to space Atlas Agena B | Midas 7
Atlas Agena B | Midas 7

Agency: N/A

Status: Launch Successful

Launch date: May 9, 1963, 8:06 p.m. UTC

Rocket: Atlas Agena B

Launch pad: Space Launch Complex 3E

Location: Vandenberg SFB, CA, USA

...

Latest news about this satellite

There are no fresh news available about this satellite. Check back as we update our databases every day.


Newsletter sign-up

Weekly statistics, charts and insights to help you stay on top of the space industry.